Regional Weather Roundup
Issued by NWS

Home | Current Version | Previous Version | Graphics & Text | Print | Product List | Glossary On
Versions: 1 2 3 4 5 6 7 8 9 10 11 12 13 14 15 16 17 18 19 20 21 22 23 24 25 26 27 28 29 30 31 32 33 34 35 36 37 38 39 40 41 42 43 44 45 46 47 48 49 50
000
ASUS43 KFSD 290410
RWRSD

WEATHER ROUNDUP FOR SOUTH DAKOTA
NATIONAL WEATHER SERVICE SIOUX FALLS SD
1000 PM CST SUN DEC 28 2014

NOTE: "FAIR" INDICATES FEW OR NO CLOUDS BELOW 12,000 FEET WITH NO
SIGNIFICANT WEATHER AND/OR OBSTRUCTIONS TO VISIBILITY.


SDZ001>005-009-010-012>017-290500-
NORTHWEST AND NORTH CENTRAL SOUTH DAKOTA

CITY           SKY/WX    TMP DP  RH WIND       PRES   REMARKS
BUFFALO          N/A     15  12  88 E18       30.11R WCI  -2
FAITH            N/A     14  10  84 NE13      30.21R WCI   0
MOBRIDGE       CLOUDY     9   2  73 NE10      30.31R WCI  -5
$$

SDZ012>016-024>037-041>051-057-063-072>074-290500-
SOUTHWEST AND SOUTH CENTRAL SOUTH DAKOTA

CITY           SKY/WX    TMP DP  RH WIND       PRES   REMARKS
RAPID CTY ARPT LGT SNOW  15  11  83 NE10      30.13R FOG     WCI   2
PIERRE         LGT SNOW  11   7  84 NE21      30.26R FOG     WCI  -8
CUSTER         LGT SNOW  15  11  83 NE9       29.95R FOG     WCI   3
ELLSWORTH AFB  FLURRIES  15  11  87 E6        30.13  WCI   6
PHILIP         LGT SNOW  18  14  84 E12       30.20R FOG     WCI   5
PINE RIDGE     LGT SNOW  18  14  84 NE12      30.06R FOG     WCI   5
SPEARFISH      LGT SNOW  16  14  93 E5        30.08R WCI   9
WINNER         LGT SNOW  18  14  84 E12       30.21R WCI   5
$$

SDZ004>011-016>023-039-040-290500-
NORTHEAST SOUTH DAKOTA

CITY           SKY/WX    TMP DP  RH WIND       PRES   REMARKS
ABERDEEN       CLOUDY     5  -3  69 NE15      30.39R WCI -13
WATERTOWN      CLOUDY     6   1  80 N8        30.30R WCI  -7
SISSETON         N/A      2  -3  80 N13       30.40R WCI -15
$$

SDZ017-020-022-023-036>040-048>070-290500-
SOUTHEAST SOUTH DAKOTA

CITY           SKY/WX    TMP DP  RH WIND       PRES   REMARKS
SIOUX FALLS    LGT SNOW  17  13  84 NE14      30.26R FOG     WCI   3
HURON          LGT SNOW  13   9  84 NE10      30.32R FOG     WCI   0
CHAMBERLAIN    LGT SNOW  17  15  90 NE8       30.25R WCI   7
MITCHELL       LGT SNOW  19  16  88 NE12      30.29R FOG     WCI   7
YANKTON        CLOUDY    19  18  93 NE8       30.26R WCI   9
$$

ABBREVIATIONS USED IN REMARKS
   TC - TEMPERATURE IN CELSIUS
  WCI - WIND CHILL INDEX
   HX - HEAT INDEX
  VSB - VISIBILITY




USA.gov is the U.S. government's official web portal to all federal, state and local government web resources and services.